SCP
0 0 0 0 0 0 0 0 0 0 0 0 0 0 0 0 0 0 0 0 0 0 0 0 0 0 0 0 0 0 0 -0 -0 -0 0 0 0 0
0 0 0 0 0 0 0 0 0 0 0 0 0 0 0 0 0 0 0 0 0 0 0 0 0 0 0 -0 -0 -0 -0 -0 -0 -0 -0 0 -0 -0
0 0 0 0 0 0 0 0 0 0 0 0 0 0 0 0 0 0 0 0 0 0 0 0 -0 -0 -0 -0 -0 -0 -0 0 0 0 0 0 0 0
0 0 0 0 0 0 0 0 0 0 0 0 0 0 0 0 0 0 0 0 0 0 0 -0 -0 -0 -0 -0 -0 0 -0 0 0 0 0 0 0 0
0 0 0 0 0 0 0 0 0 0 0 0 0 0 0 0 0 0 0 0 0 0 0 -0 -0 0 0 0 0 0 0 0 0 0 0 0 0 0
0 0 0 0 0 0 0 0 0 0 0 0 0 0 0 0 0 0 0 0 0 0 0 0 0 0 0 0 0 0 0 0 0 0 0 0 0 0
0 0 0 0 0 0 0 0 0 0 0 0 0 0 0 0 0 0 0 0 0 0 0 0 0 0 0 0 0 0 0 0 0 0 0 0 0 0
0 0 0 0 0 0 0 0 0 0 0 0 0 0 0 0 0 0 0 0 0 0 0 0 0 0 0 0 0 0 0 0 0 0 0 0 0 0
0 0 0 0 0 0 0 0 0 0 0 0 0 0 0 0 0 0 0 0 0 0 0 0 0 0 0 0 0 0 0 0 0 0 0 0 0 0
0 0 0 0 0 0 0 0 0 0 0 0 0 0 0 0 0 0 0 0 0 0 0 0 0 0 0 0 0 0 0 0 0 0 0 0 0 0
0 0 0 0 0 0 0 0 0 0 0 0 0 0 0 0 0 0 0 0 0 0 0 0 0 0 0 0 0 0 0 0 0 0 0 0 0 0
0 0 0 0 0 0 0 0 0 0 0 0 0 0 0 0 0 0 0 0 0 0 0 0 0 0 0 0 0 0 0 0 0 0 0 0 0 0
0 0 0 0 0 0 0 0 0 0 0 0 0 0 0 0 0 0 0 0 0 0 0 0 0 0 0 0 0 0 0 0 0 0 0 -0 -0 -0
0 0 0 0 0 0 0 0 0 0 0 0 0 0 0 0 0 0 0 0 0 0 0 0 0 0 0 0 0 0 0 0 0 0 0 -0 -0 -0
0 0 0 0 0 0 0 0 0 0 0 0 0 0 0 0 0 0 0 0 0 0 0 0 0 0 0 0 0 0 0 0 0 -0 0 0 0 0
0 0 0 0 0 0 0 0 0 0 0 0 0 0 0 0 0 0 0 0 0 0 0 0 0 0 0 0 0 0 0 0 0 0 0 0 0 0
0 0 0 0 0 0 0 0 0 0 0 0 0 0 0 0 0 0 0 0 0 0 0 0 0 0 0 0 0 0 0 0 0 0 0 0 0 0
0 0 0 0 0 0 0 0 0 0 0 0 0 0 0 0 0 0 0 0 0 0 0 0 0 0 0 0 0 0 0 0 0 0 0 0 0 0
0 0 0 0 0 0 0 0 0 0 0 0 0 0 0 0 0 0 0 0 0 0 0 0 0 0 0 0 0 0 0 0 0 0 0 0 0 0
0 0 0 0 0 0 0 0 0 0 0 0 0 0 0 0 0 0 0 0 0 0 0 0 0 0 0 0 0 0 0 0 0 0 0 0 0 0
0 0 0 0 0 0 0 0 0 0 0 0 0 0 0 0 0 0 0 0 0 0 0 0 0 0 0 0 0 0 0 0 -0 0 0 0 0 0
0 0 0 0 0 0 0 0 0 0 0 0 0 0 0 0 0 0 0 0 0 0 0 0 0 0 0 0 0 0 0 0 0 -0 -0 0 0 0
0 0 0 0 0 0 0 0 0 0 0 0 0 0 0 0 0 0 0 0 0 0 0 0 0 0 0 0 0 0 0 0 0 0 0 -0 -0 0
Wind_Speed_500mb
103 101 98 90 83 75 67 61 56 44 52 56 50 55 52 48 37 29 23 19 21 23 26 29 30 29 30 29 29 30 33 37 40 44 47 48 50 52
110 109 103 98 92 85 78 70 65 61 43 56 58 55 55 51 38 32 25 22 25 28 30 31 30 32 31 30 29 28 29 34 42 47 52 56 62 65
116 114 110 106 100 95 88 79 72 69 62 57 57 56 55 53 44 36 29 26 28 28 29 31 28 29 29 28 32 33 33 35 37 41 46 48 47 54
123 118 116 114 108 103 97 89 82 75 72 68 61 61 61 56 49 42 33 30 29 29 30 32 28 27 29 28 27 28 33 36 37 39 41 46 54 57
124 121 120 121 115 113 106 98 90 83 79 75 70 68 67 62 55 48 40 33 31 32 33 34 30 31 32 29 27 28 29 32 33 35 39 45 50 54
124 124 124 127 122 120 113 108 99 92 89 84 79 74 72 67 60 52 49 37 38 38 36 36 33 33 32 25 23 22 25 25 29 32 37 42 49 56
114 123 128 130 127 124 121 119 110 102 98 93 91 85 78 73 68 60 55 46 44 44 41 42 38 38 32 26 21 18 19 19 22 27 32 39 45 53
114 119 127 130 133 129 125 121 115 110 107 104 98 95 87 80 71 65 56 48 45 47 44 42 41 38 33 22 18 19 17 19 23 28 36 45 53 61
108 115 123 130 135 132 130 123 118 113 108 104 101 95 88 82 73 67 62 55 46 42 42 39 42 39 34 24 22 21 19 24 29 35 40 47 56 65
97 107 119 124 134 137 135 129 129 122 118 111 100 89 81 76 72 65 59 53 48 46 45 48 40 41 39 32 26 22 24 28 39 43 46 52 60 68
97 100 110 121 131 126 131 136 133 130 121 113 103 95 87 81 69 65 61 56 49 48 46 48 40 43 45 38 26 22 33 38 44 51 53 56 63 73
97 104 109 116 120 119 117 130 138 139 128 118 105 96 89 82 78 72 64 56 50 41 46 46 38 35 23 30 26 35 44 47 55 61 62 61 65 76
93 101 110 109 109 107 105 118 132 129 123 112 102 96 92 82 79 79 71 61 53 50 39 42 40 38 36 40 40 39 43 55 60 62 62 66 66 69
93 95 97 97 94 101 91 105 109 117 115 110 106 103 98 87 81 75 66 58 52 48 45 45 48 41 43 48 47 44 55 59 57 59 65 70 74 73
94 101 97 92 80 79 86 104 89 109 113 112 112 107 95 80 82 69 60 56 52 48 44 45 46 43 49 50 57 59 66 65 51 63 72 73 79 83
86 93 98 84 72 78 81 96 100 110 111 112 110 100 80 87 77 66 60 55 50 47 43 45 46 47 51 52 54 62 59 64 69 70 78 84 84 87
71 83 88 85 75 75 83 102 103 106 103 103 102 90 87 79 68 64 60 57 54 46 45 45 44 47 50 52 60 58 62 65 64 74 84 92 93 93
63 85 82 85 81 83 87 95 97 98 95 99 92 84 85 78 73 66 61 56 50 45 43 40 40 43 46 51 52 56 63 61 66 76 78 86 101 100
79 85 81 82 79 82 85 98 96 94 92 89 86 86 84 77 66 61 58 53 48 41 38 36 35 38 43 49 61 57 49 63 75 80 77 79 85 106
77 84 80 78 76 89 92 93 92 96 87 86 82 82 82 75 68 62 55 49 39 35 33 32 34 34 37 43 59 74 62 67 63 83 93 91 98 103
68 83 77 73 81 88 97 99 101 93 85 84 85 80 76 69 62 55 49 42 38 35 34 32 32 37 42 47 61 75 76 57 61 70 83 86 102 117
60 78 75 78 78 80 89 92 94 94 88 83 76 72 63 56 51 45 41 36 33 31 31 32 35 31 32 39 60 78 90 85 71 76 67 69 77 83
63 75 77 71 68 76 80 84 88 91 82 74 70 62 56 48 42 39 36 34 31 27 28 33 31 28 35 41 56 73 86 99 105 94 86 69 68 80
Wind_Direction_500mb
235 233 231 230 231 232 233 233 228 216 221 226 224 224 224 221 228 241 249 260 275 290 300 304 308 307 312 317 322 326 327 329 330 329 326 324 321 318
234 234 233 231 231 231 231 233 232 232 221 225 227 228 224 221 232 242 248 261 276 288 301 308 313 309 309 312 324 334 333 331 330 329 329 327 324 320
238 236 234 233 231 231 230 230 231 232 229 228 222 226 223 223 232 234 238 248 262 278 294 300 305 305 309 315 321 318 320 320 321 319 318 317 316 315
240 237 235 233 232 231 231 230 231 232 232 234 228 224 223 228 233 234 237 244 255 270 285 292 294 295 294 300 309 311 314 316 317 320 322 322 320 318
244 242 239 237 233 232 231 230 230 230 232 233 230 227 228 230 232 237 239 244 256 267 277 281 285 285 287 296 304 309 309 308 315 321 320 319 318 318
246 244 242 241 238 236 233 233 230 229 229 230 230 229 228 228 228 234 238 239 252 261 269 271 270 273 279 285 286 290 295 309 312 314 318 318 316 315
251 247 244 242 241 240 238 235 231 229 227 228 228 227 226 228 229 232 236 239 247 256 260 261 262 266 269 270 274 283 293 300 311 315 317 318 319 319
254 251 247 244 242 240 239 239 240 235 231 228 228 231 231 232 231 232 237 243 248 253 254 254 264 267 271 280 285 285 296 321 324 325 330 332 328 326
259 255 251 248 245 241 238 236 238 237 239 241 235 235 234 233 233 234 236 239 241 249 260 257 267 270 275 283 288 290 301 320 323 326 329 325 320 318
258 257 254 252 249 242 238 235 233 233 232 233 233 237 238 237 234 234 233 237 236 244 255 264 266 270 274 280 269 265 308 318 321 321 318 318 318 315
257 254 253 252 251 248 242 237 234 233 230 231 229 229 227 231 230 229 228 228 232 240 247 256 261 268 282 280 248 277 310 318 317 317 321 323 321 315
255 253 251 249 248 248 242 238 234 231 226 224 223 225 227 228 231 232 230 226 228 240 249 243 261 274 287 270 255 302 308 316 321 322 327 326 322 318
247 246 248 246 242 240 245 241 239 233 229 228 224 221 221 220 224 228 226 227 226 232 246 253 264 268 272 279 284 295 306 319 322 320 324 325 323 320
246 245 245 247 242 239 233 234 234 231 228 222 219 218 218 218 227 226 225 229 229 235 242 251 261 267 273 284 287 301 308 313 318 320 325 325 323 322
246 246 245 247 244 219 215 223 226 225 226 218 217 216 216 223 222 219 223 227 233 237 243 252 263 269 273 279 287 303 312 313 315 322 321 322 323 323
243 248 240 236 233 226 222 215 214 220 221 220 216 215 218 220 214 215 222 229 235 240 246 253 260 268 276 282 289 299 308 306 314 319 322 320 322 322
243 237 231 230 232 214 214 211 207 210 210 212 209 208 216 212 211 213 219 226 230 238 243 248 257 267 275 284 289 300 307 307 310 318 319 318 318 319
234 224 216 220 225 206 202 204 202 205 205 207 204 213 210 208 206 209 217 224 232 238 246 253 262 273 284 288 290 301 304 307 312 317 314 314 315 317
229 221 216 214 218 202 199 204 195 207 208 203 210 204 206 202 203 210 217 225 230 238 250 262 270 280 286 290 298 304 303 307 313 314 316 308 305 316
228 215 215 215 212 201 200 201 200 202 203 204 201 202 202 205 202 207 216 223 232 245 257 267 274 281 280 289 289 296 302 310 312 316 318 313 309 313
225 214 214 208 206 202 206 207 208 200 202 200 202 202 202 199 201 208 215 226 235 247 259 269 280 283 279 290 293 303 310 300 304 303 308 301 308 315
223 207 205 204 212 214 208 210 207 204 204 204 201 199 194 198 204 213 219 227 240 253 272 284 288 282 278 283 292 305 310 312 311 311 297 286 286 288
212 203 200 207 219 217 214 213 210 206 205 204 199 196 197 201 205 210 220 231 245 262 279 289 286 279 282 286 291 303 311 315 319 314 305 301 288 285
Wind_Speed_850mb
103 101 98 90 83 75 67 61 56 44 52 56 50 55 52 48 37 29 23 19 21 23 26 29 30 29 30 29 29 30 33 37 40 44 47 48 50 52
110 109 103 98 92 85 78 70 65 61 43 56 58 55 55 51 38 32 25 22 25 28 30 31 30 32 31 30 29 28 29 34 42 47 52 56 62 65
116 114 110 106 100 95 88 79 72 69 62 57 57 56 55 53 44 36 29 26 28 28 29 31 28 29 29 28 32 33 33 35 37 41 46 48 47 54
123 118 116 114 108 103 97 89 82 75 72 68 61 61 61 56 49 42 33 30 29 29 30 32 28 27 29 28 27 28 33 36 37 39 41 46 54 57
124 121 120 121 115 113 106 98 90 83 79 75 70 68 67 62 55 48 40 33 31 32 33 34 30 31 32 29 27 28 29 32 33 35 39 45 50 54
124 124 124 127 122 120 113 108 99 92 89 84 79 74 72 67 60 52 49 37 38 38 36 36 33 33 32 25 23 22 25 25 29 32 37 42 49 56
114 123 128 130 127 124 121 119 110 102 98 93 91 85 78 73 68 60 55 46 44 44 41 42 38 38 32 26 21 18 19 19 22 27 32 39 45 53
114 119 127 130 133 129 125 121 115 110 107 104 98 95 87 80 71 65 56 48 45 47 44 42 41 38 33 22 18 19 17 19 23 28 36 45 53 61
108 115 123 130 135 132 130 123 118 113 108 104 101 95 88 82 73 67 62 55 46 42 42 39 42 39 34 24 22 21 19 24 29 35 40 47 56 65
97 107 119 124 134 137 135 129 129 122 118 111 100 89 81 76 72 65 59 53 48 46 45 48 40 41 39 32 26 22 24 28 39 43 46 52 60 68
97 100 110 121 131 126 131 136 133 130 121 113 103 95 87 81 69 65 61 56 49 48 46 48 40 43 45 38 26 22 33 38 44 51 53 56 63 73
97 104 109 116 120 119 117 130 138 139 128 118 105 96 89 82 78 72 64 56 50 41 46 46 38 35 23 30 26 35 44 47 55 61 62 61 65 76
93 101 110 109 109 107 105 118 132 129 123 112 102 96 92 82 79 79 71 61 53 50 39 42 40 38 36 40 40 39 43 55 60 62 62 66 66 69
93 95 97 97 94 101 91 105 109 117 115 110 106 103 98 87 81 75 66 58 52 48 45 45 48 41 43 48 47 44 55 59 57 59 65 70 74 73
94 101 97 92 80 79 86 104 89 109 113 112 112 107 95 80 82 69 60 56 52 48 44 45 46 43 49 50 57 59 66 65 51 63 72 73 79 83
86 93 98 84 72 78 81 96 100 110 111 112 110 100 80 87 77 66 60 55 50 47 43 45 46 47 51 52 54 62 59 64 69 70 78 84 84 87
71 83 88 85 75 75 83 102 103 106 103 103 102 90 87 79 68 64 60 57 54 46 45 45 44 47 50 52 60 58 62 65 64 74 84 92 93 93
63 85 82 85 81 83 87 95 97 98 95 99 92 84 85 78 73 66 61 56 50 45 43 40 40 43 46 51 52 56 63 61 66 76 78 86 101 100
79 85 81 82 79 82 85 98 96 94 92 89 86 86 84 77 66 61 58 53 48 41 38 36 35 38 43 49 61 57 49 63 75 80 77 79 85 106
77 84 80 78 76 89 92 93 92 96 87 86 82 82 82 75 68 62 55 49 39 35 33 32 34 34 37 43 59 74 62 67 63 83 93 91 98 103
68 83 77 73 81 88 97 99 101 93 85 84 85 80 76 69 62 55 49 42 38 35 34 32 32 37 42 47 61 75 76 57 61 70 83 86 102 117
60 78 75 78 78 80 89 92 94 94 88 83 76 72 63 56 51 45 41 36 33 31 31 32 35 31 32 39 60 78 90 85 71 76 67 69 77 83
63 75 77 71 68 76 80 84 88 91 82 74 70 62 56 48 42 39 36 34 31 27 28 33 31 28 35 41 56 73 86 99 105 94 86 69 68 80
Wind_Direction_850mb
235 233 231 230 231 232 233 233 228 216 221 226 224 224 224 221 228 241 249 260 275 290 300 304 308 307 312 317 322 326 327 329 330 329 326 324 321 318
234 234 233 231 231 231 231 233 232 232 221 225 227 228 224 221 232 242 248 261 276 288 301 308 313 309 309 312 324 334 333 331 330 329 329 327 324 320
238 236 234 233 231 231 230 230 231 232 229 228 222 226 223 223 232 234 238 248 262 278 294 300 305 305 309 315 321 318 320 320 321 319 318 317 316 315
240 237 235 233 232 231 231 230 231 232 232 234 228 224 223 228 233 234 237 244 255 270 285 292 294 295 294 300 309 311 314 316 317 320 322 322 320 318
244 242 239 237 233 232 231 230 230 230 232 233 230 227 228 230 232 237 239 244 256 267 277 281 285 285 287 296 304 309 309 308 315 321 320 319 318 318
246 244 242 241 238 236 233 233 230 229 229 230 230 229 228 228 228 234 238 239 252 261 269 271 270 273 279 285 286 290 295 309 312 314 318 318 316 315
251 247 244 242 241 240 238 235 231 229 227 228 228 227 226 228 229 232 236 239 247 256 260 261 262 266 269 270 274 283 293 300 311 315 317 318 319 319
254 251 247 244 242 240 239 239 240 235 231 228 228 231 231 232 231 232 237 243 248 253 254 254 264 267 271 280 285 285 296 321 324 325 330 332 328 326
259 255 251 248 245 241 238 236 238 237 239 241 235 235 234 233 233 234 236 239 241 249 260 257 267 270 275 283 288 290 301 320 323 326 329 325 320 318
258 257 254 252 249 242 238 235 233 233 232 233 233 237 238 237 234 234 233 237 236 244 255 264 266 270 274 280 269 265 308 318 321 321 318 318 318 315
257 254 253 252 251 248 242 237 234 233 230 231 229 229 227 231 230 229 228 228 232 240 247 256 261 268 282 280 248 277 310 318 317 317 321 323 321 315
255 253 251 249 248 248 242 238 234 231 226 224 223 225 227 228 231 232 230 226 228 240 249 243 261 274 287 270 255 302 308 316 321 322 327 326 322 318
247 246 248 246 242 240 245 241 239 233 229 228 224 221 221 220 224 228 226 227 226 232 246 253 264 268 272 279 284 295 306 319 322 320 324 325 323 320
246 245 245 247 242 239 233 234 234 231 228 222 219 218 218 218 227 226 225 229 229 235 242 251 261 267 273 284 287 301 308 313 318 320 325 325 323 322
246 246 245 247 244 219 215 223 226 225 226 218 217 216 216 223 222 219 223 227 233 237 243 252 263 269 273 279 287 303 312 313 315 322 321 322 323 323
243 248 240 236 233 226 222 215 214 220 221 220 216 215 218 220 214 215 222 229 235 240 246 253 260 268 276 282 289 299 308 306 314 319 322 320 322 322
243 237 231 230 232 214 214 211 207 210 210 212 209 208 216 212 211 213 219 226 230 238 243 248 257 267 275 284 289 300 307 307 310 318 319 318 318 319
234 224 216 220 225 206 202 204 202 205 205 207 204 213 210 208 206 209 217 224 232 238 246 253 262 273 284 288 290 301 304 307 312 317 314 314 315 317
229 221 216 214 218 202 199 204 195 207 208 203 210 204 206 202 203 210 217 225 230 238 250 262 270 280 286 290 298 304 303 307 313 314 316 308 305 316
228 215 215 215 212 201 200 201 200 202 203 204 201 202 202 205 202 207 216 223 232 245 257 267 274 281 280 289 289 296 302 310 312 316 318 313 309 313
225 214 214 208 206 202 206 207 208 200 202 200 202 202 202 199 201 208 215 226 235 247 259 269 280 283 279 290 293 303 310 300 304 303 308 301 308 315
223 207 205 204 212 214 208 210 207 204 204 204 201 199 194 198 204 213 219 227 240 253 272 284 288 282 278 283 292 305 310 312 311 311 297 286 286 288
212 203 200 207 219 217 214 213 210 206 205 204 199 196 197 201 205 210 220 231 245 262 279 289 286 279 282 286 291 303 311 315 319 314 305 301 288 285